[[{"header":{"parameterUnit":"m.s-1","parameterCategory":1,"la1":30.2991,"la2":30.254,"lo1":-89.0895,"lo2":-89.0444,"dy":0.0017,"dx":0.0017,"nx":28,"ny":28,"refTime":"2025-12-06T03:00:00:Z","depth":0,"parameterNumber":2,"parameterNumberName":"U-component_of_WINDS"},"data":[0,0,0,0,0,0,0,0,0,0,0,0,0,0,0,0,0,0,0,0,0,0,0,0,0,0,0,0,0,0,0,0,0,0,0,0,0,0,0,0,0,0,0,0,0,0,0,0,0,0,0,0,0,0,0,0,0,0,-2.7535,-2.7536,0,-2.761,-2.7611,-2.7612,-2.7542,-2.7539,-2.7536,-2.7534,-2.7612,-2.7616,-2.7621,0,0,0,0,0,0,0,0,0,0,0,0,0,-2.7331,-2.7335,-2.7535,-2.7536,-2.7537,-2.761,-2.7611,-2.7612,-2.7542,-2.7539,-2.7536,-2.7532,-2.761,-2.7616,-2.7622,0,0,0,0,0,0,0,0,0,0,0,0,0,-2.7415,-2.7337,-2.7535,-2.7511,-2.7509,-2.761,-2.7611,-2.7612,-2.7543,-2.7539,-2.7535,-2.7531,-2.7608,-2.7615,-2.7622,-2.7751,0,0,-2.7644,-2.7647,0,0,0,0,0,0,0,0,-2.741,-2.7422,-2.7513,-2.7513,-2.7511,-2.7562,-2.7568,-2.7659,-2.7544,-2.753,-2.7534,-2.7529,-2.7599,-2.7606,-2.763,-2.7754,-2.7758,-2.7645,-2.7649,-2.7652,-2.7654,0,0,0,0,0,0,0,-2.7404,-2.7418,-2.7565,-2.7515,-2.7514,-2.7497,-2.7504,-2.7585,-2.7588,-2.7531,-2.7526,-2.7536,-2.7597,-2.7623,-2.7631,-2.7759,-2.7644,-2.7651,-2.7655,-2.7658,-2.7993,-2.7997,0,0,0,0,0,0,-2.7401,-2.7414,-2.7562,-2.7567,-2.7449,-2.7504,-2.7512,-2.755,-2.7586,-2.7588,-2.754,-2.7533,-2.7613,-2.7623,-2.7634,-2.7787,-2.7652,-2.7658,-2.7662,-2.7988,-2.7994,-2.7999,0,0,0,0,0,0,-2.7397,-2.7415,-2.7559,-2.7489,-2.7506,-2.7512,-2.7556,-2.7554,-2.758,-2.7593,-2.7593,-2.7566,-2.761,-2.7624,-2.7722,-2.7789,-2.7662,-2.7668,-2.7982,-2.799,-2.7996,-2.8094,0,0,0,0,0,0,-2.7391,-2.7414,-2.7462,-2.7491,-2.751,-2.7647,-2.756,-2.7559,-2.7592,-2.7583,-2.7617,-2.7619,-2.7608,-2.7712,-2.7729,-2.7796,-2.7674,-2.7976,-2.7986,-2.7994,-2.8085,-2.8104,-2.812,0,0,0,0,0,-2.7384,-2.7487,-2.7465,-2.7484,-2.7571,-2.765,-2.7662,-2.7647,-2.7598,-2.7647,-2.7655,-2.7618,-2.7778,-2.7723,-2.7741,-2.7812,-2.7972,-2.7983,-2.7993,-2.8077,-2.81,-2.8119,0,0,0,0,0,0,-2.7467,-2.749,-2.7466,-2.7582,-2.7615,-2.7638,-2.77,-2.7671,-2.7719,-2.771,-2.769,-2.7698,-2.7802,-2.7816,-2.7754,-2.7938,-2.7867,-2.7882,-2.7925,-2.7947,-2.7963,-2.7959,-2.7679,0,0,0,0,0,-2.7498,-2.756,-2.7578,-2.7678,-2.7695,-2.7695,-2.7729,-2.7715,-2.7748,-2.7762,-2.7777,-2.7812,-2.787,-2.7909,-2.7963,-2.8086,-2.8093,-2.8144,-2.8161,-2.8175,-2.8189,-2.8256,-2.8279,-2.8033,-2.8033,-2.8033,0,0,-2.7564,-2.7585,-2.7625,-2.7695,-2.7718,-2.7784,-2.7707,-2.7779,-2.7828,-2.7773,-2.7867,-2.788,-2.7916,-2.8028,-2.8078,-2.8043,-2.8258,-2.8188,-2.82,-2.8205,-2.8269,-2.8292,-2.8313,-2.804,-2.8039,-2.8038,0,0,-2.7718,-2.7739,-2.7825,-2.7851,-2.7888,-2.7887,-2.7907,-2.7936,-2.7942,-2.8036,-2.7997,-2.8054,-2.8154,-2.8182,-2.821,-2.8374,-2.8342,-2.8392,-2.8483,-2.8548,-2.8568,-2.8585,-2.8645,-2.8666,-2.8405,-2.8405,-2.8405,0,-2.7795,-2.7892,-2.7873,-2.7948,-2.798,-2.7933,-2.8021,-2.8046,-2.8099,-2.8123,-2.8082,-2.8208,-2.8229,-2.8347,-2.8387,-2.8411,-2.8434,-2.8389,-2.8566,-2.8583,-2.8599,-2.8656,-2.8678,-2.8411,-2.8411,-2.841,-2.8409,0,-2.7986,-2.8053,-2.8118,-2.8171,-2.821,-2.829,-2.8284,-2.8326,-2.8309,-2.8312,-2.8409,-2.8432,-2.8491,-2.8517,-2.8501,-2.8634,-2.8611,-2.8569,-2.8498,-2.8629,-2.8682,-2.8703,-2.842,-2.8418,-2.8416,-2.8414,0,0,-2.8195,-2.8235,-2.826,-2.8283,-2.832,-2.8372,-2.8451,-2.8508,-2.8545,-2.8582,-2.8649,-2.8735,-2.8696,-2.8727,-2.8713,-2.8771,-2.8901,-2.8722,-2.8723,-2.8756,-2.905,-2.9082,-2.9107,-2.8879,-2.8883,-2.8886,-2.9047,0,-2.835,-2.8487,-2.8473,-2.8603,-2.8666,-2.8622,-2.869,-2.8721,-2.8726,-2.878,-2.8785,-2.8847,-2.8791,-2.881,-2.8865,-2.8874,-2.896,-2.8861,-2.8941,-2.8944,-2.8935,-2.9135,-2.9169,-2.932,-2.9067,-2.9071,-2.9073,0,-2.8551,-2.8596,-2.8733,-2.8761,-2.8787,-2.8849,-2.89,-2.8952,-2.8985,-2.8985,-2.902,-2.8996,-2.9076,-2.9002,-2.9112,-2.9046,-2.9077,-2.9086,-2.9092,-2.91,-2.9018,-2.915,-2.9367,-2.9391,-2.9106,-2.9103,-2.9101,0,-2.8691,-2.8786,-2.888,-2.8901,-2.8936,-2.8981,-2.8997,-2.9027,-2.9062,-2.9107,-2.913,-2.9183,-2.9213,-2.9255,-2.9246,-2.9193,-2.9359,-2.9284,-2.9362,-2.9362,-2.94,-2.9398,-2.9627,-2.9418,-2.9418,-2.9417,-2.9417,0,-2.8867,-2.8953,-2.8944,-2.9002,-2.9097,-2.9079,-2.9174,-2.9184,-2.9211,-2.9271,-2.9236,-2.9293,-2.9277,-2.9334,-2.9327,-2.942,-2.9433,-2.9436,-2.9433,-2.944,-2.944,-2.9461,-2.9451,-2.9423,-2.9422,-2.9421,-2.942,0,-2.9041,-2.9038,-2.9138,-2.9162,-2.917,-2.9239,-2.926,-2.9316,-2.9317,-2.9394,-2.9411,-2.9414,-2.9479,-2.9474,-2.9547,-2.9542,-2.9657,-2.9642,-2.9646,-2.9643,-2.9722,-2.9715,-2.9974,-3.0008,-2.9776,-2.9778,-2.978,0,-2.9154,-2.9219,-2.9251,-2.9288,-2.9308,-2.9369,-2.9404,-2.9389,-2.9428,-2.9471,-2.9522,-2.9583,-2.9631,-2.9737,-2.9746,-2.9802,-2.9788,-2.9875,-2.9797,-2.9801,-2.9791,-2.9788,-2.9795,-2.9891,-2.9894,-2.9896,-2.9898,0,-2.9357,-2.9352,-2.9405,-2.9458,-2.9501,-2.9542,-2.9579,-2.9612,-2.96,-2.9646,-2.9712,-2.9749,-2.9823,-2.9885,-2.9938,-2.9955,-2.9926,-2.9922,-2.9943,-2.9951,-2.9952,-2.9954,-2.969,-2.9917,-2.9915,-2.9913,-2.9912,-2.9912,-2.9504,-2.956,-2.9591,-2.9652,-2.9678,-2.9713,-2.9767,-2.9775,-2.9829,-2.9889,-2.9876,-2.9951,-2.9983,-3.0051,-3.0073,-3.0131,-3.01,-3.013,-3.0138,-3.0146,-3.0156,-2.9941,-3.014,-3.014,-3.0139,-3.0139,-3.0139,0,-2.9706,-2.9723,-2.9779,-2.9832,-2.988,-2.9846,-2.9886,-2.9928,-2.9994,-3.0026,-3.0074,-3.015,-3.021,-3.0223,-3.0281,-3.0325,-3.0313,-3.034,-3.0338,-3.0343,-3.018,-3.0157,-3.0349,-3.0349,-3.0349,-3.0349,-3.0349,-3.0349,-2.9816,-2.991,-2.9909,-3.0015,-3.0031,-3.0104,-3.0129,-3.0162,-3.0188,-3.0274,-3.0324,-3.0332,-3.0357,-3.0416,-3.0469,-3.0472,-3.0495,-3.0529,-3.0527,-3.0375,-3.0354,-3.0334,-3.0312,-3.0534,-3.0534,-3.0684,-3.0686,-3.0687]},{"header":{"parameterUnit":"m.s-1","parameterCategory":1,"la1":30.2991,"la2":30.254,"lo1":-89.0895,"lo2":-89.0444,"dy":0.0017,"dx":0.0017,"nx":28,"ny":28,"refTime":"2025-12-06T03:00:00:Z","depth":0,"parameterNumber":3,"parameterNumberName":"V-component_of_WINDS"},"data":[0,0,0,0,0,0,0,0,0,0,0,0,0,0,0,0,0,0,0,0,0,0,0,0,0,0,0,0,0,0,0,0,0,0,0,0,0,0,0,0,0,0,0,0,0,0,0,0,0,0,0,0,0,0,0,0,0,0,-1.9755,-1.9755,0,-1.9788,-1.9788,-1.9789,-1.9763,-1.9762,-1.9761,-1.976,-1.9793,-1.9795,-1.9797,0,0,0,0,0,0,0,0,0,0,0,0,0,-1.9667,-1.9669,-1.9755,-1.9755,-1.9755,-1.9788,-1.9788,-1.9789,-1.9763,-1.9762,-1.9761,-1.9759,-1.9793,-1.9795,-1.9797,0,0,0,0,0,0,0,0,0,0,0,0,0,-1.9703,-1.967,-1.9754,-1.9747,-1.9746,-1.9788,-1.9788,-1.9789,-1.9763,-1.9762,-1.976,-1.9759,-1.9792,-1.9795,-1.9798,-1.9849,0,0,-1.9806,-1.9808,0,0,0,0,0,0,0,0,-1.9701,-1.9707,-1.9747,-1.9747,-1.9747,-1.977,-1.977,-1.9809,-1.9764,-1.9757,-1.976,-1.9758,-1.9787,-1.979,-1.98,-1.985,-1.9852,-1.9807,-1.9808,-1.981,-1.9811,0,0,0,0,0,0,0,-1.9699,-1.9705,-1.9768,-1.9748,-1.9748,-1.9741,-1.9744,-1.9777,-1.9781,-1.9757,-1.9756,-1.976,-1.9786,-1.9797,-1.98,-1.9852,-1.9807,-1.9809,-1.9811,-1.9812,-1.9944,-1.9945,0,0,0,0,0,0,-1.9697,-1.9703,-1.9767,-1.9769,-1.972,-1.9744,-1.9747,-1.9764,-1.978,-1.9781,-1.9761,-1.9759,-1.9793,-1.9797,-1.9802,-1.9861,-1.981,-1.9812,-1.9814,-1.9942,-1.9944,-1.9946,0,0,0,0,0,0,-1.9695,-1.9703,-1.9765,-1.9735,-1.9743,-1.9747,-1.9766,-1.9765,-1.9776,-1.9783,-1.9784,-1.9772,-1.9792,-1.9797,-1.9837,-1.9862,-1.9814,-1.9816,-1.994,-1.9943,-1.9945,-1.9981,0,0,0,0,0,0,-1.9693,-1.9703,-1.9723,-1.9736,-1.9744,-1.9801,-1.9767,-1.9767,-1.9781,-1.9778,-1.9793,-1.9794,-1.9791,-1.9832,-1.9839,-1.9865,-1.9819,-1.9938,-1.9941,-1.9944,-1.9977,-1.9984,-1.999,0,0,0,0,0,-1.969,-1.9732,-1.9724,-1.9732,-1.977,-1.9802,-1.9807,-1.9803,-1.9784,-1.9803,-1.9807,-1.9794,-1.9858,-1.9837,-1.9844,-1.9871,-1.9936,-1.994,-1.9944,-1.9975,-1.9983,-1.999,0,0,0,0,0,0,-1.9722,-1.9733,-1.9725,-1.9772,-1.9786,-1.9798,-1.9822,-1.9812,-1.9832,-1.9828,-1.9822,-1.9825,-1.9866,-1.9872,-1.9849,-1.992,-1.9894,-1.9899,-1.9914,-1.9923,-1.9929,-1.9926,-1.9821,0,0,0,0,0,-1.9734,-1.976,-1.9769,-1.9809,-1.9817,-1.9818,-1.9832,-1.9828,-1.9842,-1.9848,-1.9855,-1.9869,-1.9892,-1.9908,-1.993,-1.9978,-1.998,-2.0,-2.0007,-2.0012,-2.0017,-2.0041,-2.005,-1.9959,-1.9959,-1.9959,0,0,-1.976,-1.977,-1.9786,-1.9816,-1.9826,-1.9852,-1.9824,-1.9853,-1.9872,-1.9852,-1.9889,-1.9895,-1.991,-1.9954,-1.9974,-1.9961,-2.0042,-2.0017,-2.0021,-2.0023,-2.0046,-2.0055,-2.0062,-1.9962,-1.9961,-1.9961,0,0,-1.982,-1.9831,-1.9865,-1.9876,-1.9892,-1.9892,-1.99,-1.9913,-1.9916,-1.9953,-1.9939,-1.9961,-2.0001,-2.0012,-2.0023,-2.0086,-2.0074,-2.0093,-2.0127,-2.0151,-2.0158,-2.0164,-2.0186,-2.0194,-2.0098,-2.0098,-2.0098,0,-1.9851,-1.989,-1.9884,-1.9914,-1.9927,-1.991,-1.9944,-1.9955,-1.9977,-1.9986,-1.9971,-2.002,-2.003,-2.0075,-2.009,-2.01,-2.0108,-2.0092,-2.0158,-2.0164,-2.017,-2.019,-2.0198,-2.01,-2.01,-2.01,-2.01,0,-1.9926,-1.9953,-1.9979,-2.0,-2.0016,-2.0048,-2.0046,-2.0063,-2.0056,-2.0058,-2.0095,-2.0105,-2.0128,-2.0138,-2.0133,-2.0183,-2.0174,-2.0158,-2.0132,-2.0181,-2.0199,-2.0207,-2.0104,-2.0103,-2.0102,-2.0102,0,0,-2.0008,-2.0025,-2.0034,-2.0043,-2.0058,-2.0079,-2.0109,-2.0132,-2.0145,-2.0161,-2.0185,-2.0219,-2.0205,-2.0217,-2.0212,-2.0233,-2.0281,-2.0215,-2.0215,-2.0226,-2.0335,-2.0346,-2.0355,-2.0273,-2.0274,-2.0275,-2.0333,0,-2.0068,-2.0122,-2.0117,-2.0167,-2.0191,-2.0175,-2.0201,-2.0213,-2.0215,-2.0235,-2.0237,-2.0261,-2.024,-2.0247,-2.0268,-2.0271,-2.0302,-2.0267,-2.0295,-2.0296,-2.0291,-2.0365,-2.0377,-2.0431,-2.034,-2.0342,-2.0343,0,-2.0146,-2.0164,-2.0217,-2.0227,-2.0237,-2.0261,-2.028,-2.03,-2.0312,-2.0312,-2.0325,-2.0316,-2.0346,-2.0318,-2.0358,-2.0334,-2.0345,-2.0348,-2.035,-2.0352,-2.0322,-2.0368,-2.0448,-2.0456,-2.0354,-2.0353,-2.0353,0,-2.02,-2.0237,-2.0272,-2.0281,-2.0294,-2.0311,-2.0317,-2.0328,-2.0341,-2.0357,-2.0365,-2.0385,-2.0396,-2.0411,-2.0407,-2.0388,-2.0448,-2.042,-2.0448,-2.0448,-2.0461,-2.046,-2.0543,-2.0469,-2.0469,-2.0469,-2.0469,0,-2.0268,-2.03,-2.0296,-2.0318,-2.0354,-2.0347,-2.0382,-2.0386,-2.0396,-2.0418,-2.0405,-2.0425,-2.0419,-2.0439,-2.0437,-2.0469,-2.0475,-2.0475,-2.0474,-2.0476,-2.0476,-2.0483,-2.0479,-2.0471,-2.0471,-2.047,-2.047,0,-2.0333,-2.0332,-2.037,-2.0379,-2.0382,-2.0407,-2.0415,-2.0435,-2.0435,-2.0463,-2.0469,-2.047,-2.0493,-2.049,-2.0516,-2.0514,-2.0554,-2.0549,-2.055,-2.0549,-2.0576,-2.0573,-2.0666,-2.0678,-2.0597,-2.0597,-2.0598,0,-2.0377,-2.0401,-2.0412,-2.0426,-2.0433,-2.0455,-2.0468,-2.0462,-2.0476,-2.0491,-2.0509,-2.0531,-2.0548,-2.0585,-2.0587,-2.0607,-2.0601,-2.0632,-2.0604,-2.0605,-2.0601,-2.0599,-2.0601,-2.0638,-2.0639,-2.064,-2.064,0,-2.0453,-2.0451,-2.047,-2.0489,-2.0505,-2.0519,-2.0532,-2.0544,-2.0539,-2.0555,-2.0578,-2.0591,-2.0617,-2.0638,-2.0656,-2.0662,-2.065,-2.0649,-2.0656,-2.0659,-2.0658,-2.0658,-2.0565,-2.0647,-2.0646,-2.0646,-2.0645,-2.0645,-2.0508,-2.0529,-2.0539,-2.0561,-2.057,-2.0582,-2.0601,-2.0603,-2.0622,-2.0643,-2.0638,-2.0663,-2.0674,-2.0696,-2.0704,-2.0723,-2.0712,-2.0723,-2.0725,-2.0728,-2.073,-2.0655,-2.0727,-2.0726,-2.0726,-2.0726,-2.0726,0,-2.0583,-2.0589,-2.0609,-2.0627,-2.0643,-2.0631,-2.0644,-2.0659,-2.0681,-2.0692,-2.0709,-2.0734,-2.0754,-2.0758,-2.0777,-2.0791,-2.0786,-2.0797,-2.0795,-2.0796,-2.074,-2.0732,-2.08,-2.08,-2.08,-2.08,-2.08,-2.08,-2.0624,-2.0657,-2.0656,-2.0693,-2.0699,-2.0724,-2.0732,-2.0743,-2.0751,-2.078,-2.0797,-2.0799,-2.0806,-2.0825,-2.0843,-2.0843,-2.085,-2.0862,-2.0861,-2.0808,-2.0801,-2.0793,-2.0785,-2.0864,-2.0864,-2.0915,-2.0916,-2.0916]}]]